Torna al catalogo

STARLINK-36187

AttivoComunicazioniSSO
NORAD 68613·PAYLOAD·🇺🇸 United States

Lanciato Apr 5, 2026 da Vandenberg Space Force Base

Loading…

Prossimi Passaggi (prossime 24 ore)

TLE

AggiornatoSource: CelesTrak SupGP

Epoca: Sep 14, 2026, 22:35 UTC

1 68613C 26073M   26257.94145833  .00086965  00000+0  27004-2 0  2576
2 68613  97.2850  96.1055 0001877  94.4736 258.7042 15.33385283    19

Traccia STARLINK-36187 in tempo reale con AllMySat

Download on the App Store